Location: Artiguedieu
(43.5000°N, 0.5454°E)
Time: 02:10:46
(UTC+00:00)

Transit 2A Rocket - Pass Details

Date: 30 July 2021
Orbit: 586 x 916 km, 66.7° (Epoch: 16 September)

Event Time Altitude Azimuth Distance (km) Brightness Sun altitude
Rises 00:37:08 0° 317° (NW) 3,313 8.8 -27.5°
Reaches altitude 10° 00:39:52 10° 304° (NW) 2,431 7.9 -27.5°
Enters shadow 00:42:52 23° 275° (W) 1,755 6.8 -27.4°
Maximum altitude 00:44:23 25° 251° (WSW) 1,660 - -27.3°
Drops below altitude 10° 00:49:08 10° 198° (SSW) 2,555 - -27.2°
Sets 00:52:06 0° 186° (S) 3,516 - -27.0°
